Location: Boji�t?
(49.9714°N, 15.2017°E)
Time: 21:04:57
(UTC+00:00)

Daily predictions for brighter satellites

Satellite Brightness Start Highest point End
(mag) Time Altitude Azimuth Time Altitude Azimuth Time Altitude Azimuth
Cosmos 2322 Rocket 2.7 19:42:12 10° SW 19:47:47 67° WNW 19:53:25 10° NNE
Meteor 1-21 Rocket 4.5 19:45:05 10° S 19:51:01 89° WNW 19:57:00 10° NNE
Cosmos 2237 4.3 19:47:32 10° SSW 19:53:15 83° ESE 19:59:02 10° NNE
Cosmos 1455 2.7 19:51:14 10° NNW 19:55:02 61° W 19:58:50 10° S
Cosmos 1758 Rocket 3.6 19:50:56 10° S 19:55:25 75° E 19:59:56 10° NNE
USA 245 3.3 19:55:39 10° SSE 19:59:05 88° ENE 20:03:30 10° NNW
Cosmos 1328 3.8 19:56:49 10° S 20:00:45 68° E 20:04:43 10° NNE
ATLAS 2AS CENTAUR R/B 3.7 19:59:16 10° NW 20:06:43 46° NNE 20:13:35 10° ESE
Cosmos 1844 4.0 20:04:10 10° NNW 20:09:55 68° WSW 20:15:34 10° SSE
COSMOS 2428 3.2 20:05:22 10° S 20:10:34 39° ESE 20:15:48 10° NE
Cosmos 2181 Rocket 4.2 20:04:22 10° N 20:10:42 65° ENE 20:16:54 10° SSE
Cosmos 1703 3.3 20:07:46 10° SSW 20:11:38 81° W 20:15:33 10° N
Cosmos 2322 3.8 20:07:37 10° SSW 20:13:16 65° ESE 20:18:57 10° NNE
Cosmos 1745 Rocket 4.5 20:07:17 10° SSW 20:13:27 67° WNW 20:19:44 10° N
Cosmos 2084 3.6 20:10:48 10° NW 20:15:18 82° NE 20:19:31 11° SE
Cosmos 1953 Rocket 3.5 20:14:24 10° S 20:18:41 71° E 20:23:01 10° NNE
Cosmos 773 Rocket 4.0 20:14:12 10° SSW 20:19:27 69° ESE 20:24:44 10° NNE
ATLAS CENTAUR R/B 1.0 20:17:51 10° NW 20:21:36 89° ENE 20:24:46 13° SE
Cosmos 2237 Rocket 3.6 20:17:54 11° SE 20:21:46 21° E 20:25:52 10° NE
ERS-1 Rocket 3.0 20:16:56 10° SSE 20:21:58 80° ENE 20:27:02 10° NNW
Cosmos 2219 Rocket 2.4 20:16:57 10° S 20:22:21 52° ESE 20:27:47 10° NE
USA 215 3.6 20:16:15 10° ENE 20:22:23 41° SE 20:28:28 10° SSW
Meteor 1-27 4.4 20:16:58 10° N 20:22:42 70° ENE 20:28:18 11° SSE
Cosmos 1869 4.3 20:20:10 10° N 20:23:50 34° ENE 20:27:01 13° SE
Gblst 52 Del rocket 4.3 20:18:12 10° WNW 20:23:50 76° SSW 20:30:05 10° ESE
Cosmos 1818 3.9 20:18:42 10° SW 20:24:08 74° NW 20:29:37 10° NE
Cosmos 2360 Rocket 2.7 20:19:23 10° SW 20:25:00 65° WNW 20:30:40 10° NNE
Cosmos 2333 4.2 20:19:30 10° SSW 20:25:08 75° ESE 20:30:52 10° NNE
Cosmos 1842 Rocket 4.1 20:21:35 10° N 20:25:48 46° ENE 20:29:24 13° SE
SPOT 5 2.9 20:23:12 11° SSE 20:28:06 78° ENE 20:32:52 10° NNW
Atlas Centaur 2 4.3 20:30:32 10° SSW 20:32:43 12° S 20:34:39 11° SSE
Cosmos 1825 Rocket 4.2 20:29:26 10° SSW 20:33:48 57° WNW 20:38:13 10° N
Cosmos 2333 Rocket 2.2 20:30:32 10° SSW 20:36:11 70° ESE 20:41:54 10° NNE
GEOS 3 Rocket 3.7 20:32:54 10° NE 20:38:20 76° SE 20:43:43 10° SW
NOSS 0 Rocket 4.5 20:38:41 10° S 20:44:18 39° ESE 20:49:58 10° NE
Cosmos 1315 Rocket 3.0 20:42:10 10° NNW 20:46:17 76° W 20:49:46 14° S
Meteor 2-2 Rocket 4.4 20:42:34 10° N 20:48:24 67° ENE 20:53:03 16° SSE
Cosmos 1892 3.5 20:51:28 18° SE 20:53:39 34° E 20:57:06 10° NNE
CARTOSAT-1 4.1 20:49:41 11° S 20:53:40 53° W 20:57:55 10° NNW
ATLAS 5 CENTAUR R/B 2.6 20:49:35 10° WSW 20:53:44 51° NW 20:58:29 10° NE
Cosmos 2278 Rocket 2.2 20:48:39 10° NNW 20:54:22 80° ENE 20:58:50 17° SSE
USA 81 4.2 20:49:33 10° S 20:54:48 76° W 21:00:07 10° N
Cosmos 1844 Rocket 4.3 20:51:32 10° NW 20:56:02 26° WSW 21:00:31 10° SSW
USA 267 3.3 20:49:41 10° ESE 20:56:15 84° NNE 21:02:52 10° WNW
Cosmos 1943 Rocket 4.2 20:53:03 10° N 20:57:18 21° NE 21:01:30 10° E
MTI 4.1 20:57:46 10° NNE 21:00:44 44° E 21:02:17 23° SSE
Cosmos 1680 Rocket 4.1 20:59:29 17° SSE 21:03:09 39° ESE 21:08:04 10° NE
Cosmos 1408 3.7 21:03:38 20° SE 21:05:09 27° E 21:08:13 10° NNE
SL-16 R/B 3.8 21:04:44 14° SE 21:06:55 17° E 21:10:32 10° ENE
Cosmos 2221 2.6 21:07:44 10° NNW 21:12:08 75° W 21:15:14 19° S
Cosmos 2184 Rocket 4.0 21:08:51 12° S 21:14:36 83° E 21:20:58 10° N
Lacrosse 5 rocket 3.2 21:12:26 10° WNW 21:16:10 31° N 21:19:43 10° ENE
In-Cosmos 22 Rocket 4.1 21:14:18 16° S 21:18:30 71° E 21:23:50 10° NNE
Terra 2.4 21:14:58 15° S 21:18:43 51° W 21:23:23 10° NNW
Cosmos 923 Rocket 4.0 21:16:23 14° S 21:20:57 68° ESE 21:26:14 10° NNE
TSX-5 4.1 21:24:31 10° NW 21:27:56 51° WSW 21:30:04 24° S
NOSS 3-4 (A) 3.8 21:23:20 10° NW 21:30:15 84° SW 21:36:03 19° SE
NOSS 3-4 (C) 3.8 21:23:26 10° NW 21:30:22 84° SW 21:36:11 19° SE
Cosmos 2058 2.8 21:27:38 21° S 21:30:23 86° E 21:34:33 10° N
Cosmos 1624 Rocket 4.0 21:32:41 10° NNW 21:37:57 76° ENE 21:41:12 23° SSE
NOSS 3-3 (A) 4.4 21:35:05 10° SW 21:41:02 68° NW 21:47:52 10° NE
NOSS 3-3 (C) 4.4 21:35:10 10° SW 21:41:09 68° NW 21:47:59 10° NE
Cosmos 1825 2.5 21:39:57 30° SSE 21:41:29 49° E 21:45:09 10° NNE
EO 1 Delta rocket 4.4 21:39:47 10° NNE 21:44:50 63° E 21:48:46 22° S
Cosmos 2369 Rocket 3.8 21:41:00 10° NNW 21:45:48 28° NE 21:50:35 10° ESE
Cosmos 1980 3.6 21:41:49 12° SSW 21:47:09 87° ESE 21:52:51 10° NNE
Aureole 2 Rocket 2.4 21:45:13 10° NNW 21:48:00 50° ENE 21:48:50 36° ESE
Cosmos 1076 Rocket 3.7 21:47:33 20° SSW 21:50:26 68° WNW 21:54:43 10° N
Nadezhda 3 Rocket 4.2 21:44:32 10° NNW 21:50:54 71° W 21:55:18 21° S
COSMOS 2455 3.6 21:47:20 10° NNW 21:53:11 48° NE 21:58:41 12° ESE
Cosmos 2154 Rocket 4.1 21:49:47 17° SSW 21:54:41 78° W 22:00:56 10° N
COSMOS 2428 3.9 21:49:25 10° WSW 21:54:49 43° NW 22:00:15 10° NNE
Cosmos 2151 3.0 21:55:43 30° S 21:57:44 66° E 22:02:00 10° NNE
Cosmos 1933 4.1 21:54:06 10° N 21:57:57 42° ENE 21:59:44 26° SE
ATLAS 2AS CENTAUR R/B 2.9 21:50:36 10° NW 21:58:08 66° SW 22:02:39 23° SSE
Thor Agena Rocket 3.4 21:53:11 10° NNE 21:58:20 79° ESE 22:01:29 24° S
Cosmos 2341 Rocket 4.0 21:55:15 23° S 21:59:13 68° E 22:05:24 10° NNE
ATLAS CENTAUR R/B 3.6 21:59:02 10° W 21:59:49 11° WSW 22:00:35 10° WSW
Helios 1A 4.4 21:57:31 17° ESE 21:59:55 29° ENE 22:03:30 10° N
DELTA 2 R/B (1) 4.4 21:55:33 10° SW 22:00:13 28° S 22:01:15 26° SSE
BREEZE-M DEB (TANK) 1.5 21:59:11 10° W 22:03:01 55° SSW 22:03:24 49° SSE
Genesis I 3.1 22:00:58 20° SW 22:03:37 85° SE 22:07:32 10° NE
SL-4 R/B 2.8 22:04:30 16° ENE 22:04:30 16° ENE 22:05:48 10° NNE
Cosmos 2237 Rocket 2.3 21:59:39 11° SW 22:05:13 77° WNW 22:10:58 10° NNE
USA 215 3.4 21:59:12 10° ENE 22:05:46 81° NNW 22:12:20 10° WSW
Cosmos 1371 Rocket 4.3 22:00:49 10° NNW 22:06:00 60° WSW 22:08:51 26° S
Cosmos 2219 Rocket 3.8 22:01:29 10° WSW 22:06:32 34° NW 22:11:39 10° NNE
Spot 4 4.0 22:06:50 27° S 22:09:22 64° WSW 22:14:08 10° NNW
Cosmos 2344 3.5 22:05:07 10° SSW 22:12:32 72° SE 22:20:40 10° NE
Cosmos 158 Rocket 4.1 22:09:32 15° SW 22:13:30 65° WNW 22:18:26 10° NNE
Cosmos 1151 Rocket 3.1 22:09:30 10° N 22:13:50 68° ENE 22:15:44 32° SSE
SL-8 Rocket 4.0 22:11:02 25° S 22:14:41 67° E 22:20:48 10° NNE
Cosmos 1782 4.2 22:12:08 10° N 22:15:38 29° ENE 22:17:28 20° ESE
Cosmos 1408 Rocket 4.2 22:15:03 29° SE 22:16:44 41° E 22:20:54 10° NNE
Cosmos 2112 Rocket 4.3 22:12:33 15° SW 22:17:00 68° WNW 22:22:23 10° NNE
CZ-4C R/B 3.6 22:12:36 10° NW 22:19:12 51° NE 22:26:57 10° ESE
Cosmos 332 Rocket 4.1 22:15:18 10° NNW 22:20:04 61° ENE 22:22:47 25° SE
ALOS 2 2.5 22:18:57 32° SSE 22:20:57 90° WNW 22:25:22 10° NNW
Cosmos 2333 Rocket 4.2 22:16:07 10° WSW 22:20:59 28° NW 22:25:54 10° NNE
Cosmos 1420 Rocket 4.0 22:15:46 10° NNW 22:21:04 90° WSW 22:23:56 28° SSE
Cosmos 1346 Rocket 4.0 22:20:27 25° ESE 22:21:33 29° E 22:24:59 10° NNE
Cosmos 1727 Rocket 4.3 22:19:25 10° N 22:25:35 59° ENE 22:29:28 24° SSE
EO 1 Del DPAF 3.8 22:24:19 10° N 22:28:00 52° WNW 22:29:55 25° SW
Cosmos 2056 Rocket 4.2 22:24:37 10° NW 22:29:46 45° WSW 22:32:26 26° SSW
GP-B 3.0 22:26:38 10° N 22:31:07 88° W 22:33:05 33° S
Cosmos 1633 3.5 22:32:54 29° ESE 22:33:46 34° E 22:37:04 10° NNE
Nimbus 7 Rocket 4.4 22:28:22 10° NNE 22:34:21 87° ESE 22:37:58 25° SSW
Cosmos 1606 3.0 22:32:14 10° NNW 22:36:04 56° W 22:37:25 35° SSW
Cosmos 2278 Rocket 4.0 22:33:52 10° NW 22:37:46 19° W 22:40:40 13° SW
RESURS DK-1 3.8 22:34:06 10° NNW 22:37:54 33° NE 22:41:05 13° ESE
USA 267 3.8 22:36:39 26° S 22:39:41 39° SW 22:45:46 10° WNW
Cosmos 1408 4.5 22:37:57 14° WSW 22:40:09 23° WNW 22:43:07 10° NNW
Cosmos 2297 4.0 22:35:26 10° NW 22:41:03 57° WSW 22:43:51 29° S
Cosmos 1943 Rocket 2.2 22:36:16 10° NNW 22:41:59 80° ENE 22:45:29 24° SE
Cosmos 44 2.9 22:40:50 27° SW 22:43:12 87° SE 22:47:41 10° NE
Gbstr 26 Del rocket 3.2 22:44:20 37° SSE 22:44:22 37° SE 22:48:14 10° ENE
Cosmos 371 Rocket 3.5 22:44:32 10° NNW 22:49:20 58° WSW 22:51:21 32° S
SL-16 R/B 2.2 22:46:34 23° SSW 22:50:16 87° WNW 22:56:00 10° NNE
IRIDIUM 104 4.5 22:49:58 28° SSW 22:52:44 69° W 22:57:57 10° N
APEX 2.6 22:51:18 10° NW 22:53:52 52° WSW 22:53:52 52° WSW
CREW DRAGON DEMO-1 DEB 2.7 22:53:16 21° WSW 22:55:10 86° NNW 22:58:15 10° ENE
Cosmos 405 3.0 22:51:39 10° N 22:55:12 73° ENE 22:56:11 44° SSE
Lacrosse 5 rocket 1.5 22:51:52 10° NW 22:55:52 64° NNE 22:59:14 13° ESE
Cosmos 1452 Rocket 3.5 22:51:35 10° NNW 22:56:50 69° WSW 22:59:20 31° S
Cosmos 1515 Rocket 3.5 22:54:04 10° NNW 22:58:26 75° W 23:00:08 36° S
Cosmos 1110 Rocket 4.4 22:54:19 10° NNW 22:59:33 59° ENE 23:03:08 20° SE
ISS -1.1 23:04:53 10° ESE 23:04:53 10° ESE 23:04:53 10° ESE
Cosmos 1766 Rocket 4.4 23:01:32 23° SW 23:03:52 42° WNW 23:08:05 10° N
Cosmos 1328 Rocket 4.3 23:00:26 10° NNW 23:04:27 39° W 23:06:06 28° SW
Meteor 2-3 Rocket 3.9 23:12:54 26° SSW 23:16:11 67° WNW 23:21:54 10° N
Cosmos 1340 3.5 23:15:33 27° SW 23:17:04 42° WNW 23:20:41 10° N
Cosmos 2228 Rocket 3.1 23:14:50 10° NNW 23:19:27 83° W 23:21:26 34° S
Resurs 1-4 Rocket 4.2 23:16:59 10° NE 23:20:15 16° E 23:23:29 10° SE
Cosmos 1603 4.0 23:22:36 29° S 23:25:22 56° ESE 23:30:57 10° NE
Meteor 2-6 Rocket 4.1 23:20:08 10° NNW 23:25:40 88° ENE 23:28:38 28° SSE
Meteor 1-10 Rocket 4.2 23:21:26 10° N 23:27:03 77° ENE 23:30:21 25° SSE
CZ-4 R/B 3.8 23:25:31 10° NNE 23:30:14 73° ESE 23:32:25 32° S
Cosmos 2369 Rocket 2.2 23:24:44 10° NNW 23:30:18 67° WSW 23:33:18 28° S
Cosmos 1743 Rocket 3.7 23:29:40 33° SSW 23:31:30 67° WNW 23:35:51 10° N
Sich 1 3.7 23:29:53 28° SSE 23:31:44 44° E 23:35:52 10° NNE
SL-4 R/B 3.8 23:32:14 11° ESE 23:32:14 11° ESE 23:32:48 10° E
Cosmos 304 Rocket 4.2 23:28:30 10° NNW 23:33:09 47° WSW 23:35:00 31° SSW
Cosmos 44 Rocket 3.8 23:32:07 31° SSE 23:33:43 41° ESE 23:38:11 10° NE
Cosmos 1821 Rocket 3.9 23:30:58 27° S 23:34:28 87° E 23:40:36 10° N
Helios 1A 4.0 23:34:08 27° SW 23:35:24 33° W 23:39:10 10° NNW
Cosmos 2123 Rocket 4.1 23:30:22 10° N 23:36:36 70° ENE 23:40:48 21° SSE
Lacrosse 5 4.1 23:36:42 10° SE 23:37:21 10° ESE 23:37:59 10° ESE
COSMOS 2455 3.4 23:33:28 10° NW 23:39:06 42° WSW 23:41:47 27° SSW
Cosmos 1656 Rocket 3.6 23:35:03 10° NNW 23:40:30 82° ENE 23:44:30 19° SSE
ATLAS 2AS CENTAUR R/B 4.4 23:43:39 10° WNW 23:47:36 15° WSW 23:50:03 13° SW
USA 215 4.2 23:42:10 10° ENE 23:48:28 51° N 23:54:45 10° W
Cosmos 1812 2.6 23:46:03 10° NNW 23:49:56 84° W 23:51:25 36° S
Cosmos 2237 Rocket 4.5 23:46:05 10° W 23:50:16 20° NW 23:54:28 10° N
CRYOSAT 2 4.4 23:46:29 10° N 23:51:19 68° W 23:53:46 29° SSW
Cosmos 1782 4.1 23:48:32 10° NNW 23:51:53 27° W 23:53:04 23° WSW
CZ-2D R/B 3.5 23:49:08 10° NE 23:53:43 29° E 23:57:20 15° SSE
USA 32 4.0 23:51:42 28° S 23:54:35 84° E 23:59:53 10° N
